Total_Precipitation_Accumulation
0.04 0.05 0.00 0.00 0.00 0.00 0.00 0.01 0.00 0.01 0.03 0.02 0.05 0.15 0.10 0.12 0.14 0.15 0.08 0.16 0.22 0.14 0.06 0.08 0.08 0.13 0.10 0.08 0.14 0.25 0.32 0.50 0.40 0.17 0.05 0.35 0.58 0.44 0.27 0.25 0.20 0.07 0.05
0.02 0.04 0.05 0.03 0.02 0.01 0.02 0.01 0.02 0.03 0.05 0.07 0.14 0.21 0.14 0.10 0.23 0.18 0.17 0.13 0.19 0.16 0.20 0.23 0.16 0.25 0.16 0.20 0.23 0.32 0.37 0.49 0.50 0.39 0.16 0.12 0.31 0.48 0.35 0.30 0.15 0.15 0.17
0.00 0.03 0.09 0.14 0.09 0.10 0.14 0.09 0.10 0.09 0.14 0.25 0.20 0.13 0.17 0.18 0.26 0.18 0.21 0.17 0.12 0.14 0.15 0.26 0.25 0.23 0.31 0.40 0.35 0.46 0.49 0.39 0.46 0.35 0.14 0.08 0.24 0.38 0.39 0.33 0.34 0.31 0.17
0.00 0.06 0.19 0.15 0.26 0.32 0.60 0.99 1.25 0.80 0.61 0.48 0.23 0.20 0.16 0.22 0.20 0.16 0.16 0.19 0.18 0.09 0.27 0.34 0.34 0.27 0.34 0.44 0.43 0.52 0.44 0.40 0.62 0.25 0.11 0.13 0.19 0.27 0.36 0.37 0.38 0.47 0.33
0.00 0.05 0.16 0.22 0.34 0.52 0.89 1.32 1.79 1.34 1.11 0.85 0.76 0.61 0.38 0.28 0.18 0.18 0.20 0.20 0.23 0.17 0.19 0.45 0.29 0.37 0.49 0.36 0.36 0.27 0.23 0.33 0.23 0.13 0.09 0.10 0.23 0.29 0.25 0.34 0.31 0.38 0.32
0.07 0.14 0.31 0.46 0.50 0.36 0.40 0.56 0.94 0.95 1.16 1.54 0.94 0.67 0.72 0.58 0.39 0.19 0.27 0.23 0.23 0.22 0.27 0.36 0.21 0.15 0.12 0.15 0.08 0.08 0.22 0.19 0.09 0.10 0.14 0.18 0.23 0.18 0.17 0.20 0.20 0.24 0.38
0.49 0.23 0.35 0.42 0.37 0.32 0.36 0.35 0.40 0.54 0.68 0.57 0.51 0.42 0.35 0.33 0.20 0.21 0.39 0.66 0.50 0.37 0.28 0.25 0.16 0.15 0.12 0.04 0.07 0.09 0.07 0.11 0.07 0.06 0.05 0.10 0.12 0.17 0.12 0.07 0.05 0.07 0.08
0.14 0.25 0.39 0.36 0.36 0.21 0.22 0.19 0.25 0.41 0.44 0.43 0.28 0.24 0.28 0.28 0.38 0.45 0.63 0.73 0.46 0.36 0.28 0.27 0.26 0.16 0.11 0.21 0.18 0.05 0.03 0.04 0.08 0.07 0.03 0.07 0.05 0.10 0.05 0.05 0.10 0.09 0.05
0.21 0.26 0.29 0.18 0.18 0.12 0.07 0.06 0.06 0.11 0.13 0.15 0.18 0.22 0.17 0.09 0.23 0.35 0.70 0.59 0.42 0.26 0.29 0.36 0.33 0.22 0.30 0.63 0.68 0.22 0.04 0.02 0.05 0.08 0.10 0.18 0.21 0.21 0.17 0.17 0.15 0.16 0.09
0.18 0.13 0.09 0.06 0.07 0.04 0.01 0.01 0.02 0.05 0.07 0.08 0.14 0.18 0.17 0.17 0.25 0.38 0.43 0.38 0.39 0.26 0.31 0.36 0.43 0.32 0.54 0.81 0.80 0.41 0.17 0.15 0.22 0.19 0.18 0.16 0.19 0.18 0.18 0.17 0.16 0.12 0.09
0.08 0.03 0.02 0.02 0.02 0.01 0.01 0.03 0.03 0.05 0.09 0.11 0.13 0.16 0.21 0.21 0.24 0.32 0.47 0.39 0.24 0.28 0.26 0.26 0.34 0.55 0.72 0.86 1.12 0.71 0.55 0.58 0.57 0.44 0.32 0.23 0.17 0.20 0.15 0.13 0.11 0.08 0.04
0.05 0.01 0.00 0.01 0.01 0.01 0.02 0.04 0.18 0.14 0.13 0.12 0.11 0.12 0.15 0.19 0.25 0.28 0.46 0.48 0.53 0.42 0.37 0.28 0.25 0.43 0.54 0.64 0.65 0.69 0.75 0.71 0.83 1.11 1.46 1.59 1.29 1.03 0.75 0.49 0.37 0.29 0.24
0.01 0.00 0.00 0.04 0.05 0.06 0.04 0.06 0.10 0.28 0.28 0.28 0.27 0.22 0.18 0.15 0.20 0.29 0.39 0.40 0.47 0.41 0.38 0.30 0.26 0.34 0.43 0.46 0.52 0.71 0.77 0.79 0.88 1.02 1.07 1.27 1.16 0.93 0.85 0.82 0.68 0.54 0.37
0.01 0.00 0.00 0.01 0.09 0.17 0.22 0.17 0.18 0.19 0.28 0.32 0.44 0.51 0.53 0.58 0.52 0.45 0.50 0.54 0.57 0.51 0.38 0.37 0.33 0.23 0.24 0.31 0.43 0.58 0.68 0.92 1.00 0.94 1.03 0.93 0.66 0.62 0.65 0.68 0.71 0.61 0.48
0.01 0.00 0.00 0.01 0.06 0.23 0.43 0.49 0.45 0.47 0.64 0.73 0.83 0.94 1.08 1.10 1.41 1.60 1.45 1.26 1.22 1.36 1.13 0.95 0.73 0.54 0.47 0.48 0.47 0.52 0.62 0.68 0.74 0.81 0.82 0.78 0.77 0.68 0.66 0.60 0.49 0.40 0.31
0.01 0.02 0.00 0.03 0.07 0.16 0.41 0.69 0.96 1.08 1.00 1.19 1.71 1.83 1.84 1.78 1.78 1.62 1.75 2.05 2.06 1.89 1.44 1.15 1.05 0.95 1.00 1.12 1.20 1.13 1.00 0.93 0.73 0.62 0.53 0.48 0.42 0.34 0.27 0.21 0.20 0.15 0.08
0.02 0.07 0.09 0.11 0.10 0.18 0.25 0.34 0.54 0.79 0.88 0.92 0.77 0.80 0.92 0.97 0.83 0.88 1.11 1.27 1.54 1.36 1.14 1.18 1.09 1.05 1.07 1.01 0.90 0.81 0.78 0.69 0.53 0.43 0.32 0.21 0.16 0.15 0.14 0.10 0.06 0.01 0.00
0.03 0.12 0.28 0.20 0.11 0.08 0.10 0.13 0.27 0.38 0.42 0.44 0.57 0.63 0.66 0.74 0.78 0.76 0.72 0.62 0.76 1.08 1.21 0.93 1.00 0.83 0.69 0.58 0.57 0.48 0.43 0.36 0.27 0.18 0.11 0.06 0.03 0.01 0.00 0.01 0.01 0.00 0.00
0.06 0.02 0.04 0.06 0.05 0.14 0.09 0.02 0.05 0.10 0.24 0.20 0.22 0.28 0.26 0.24 0.37 0.62 0.78 0.76 0.88 0.86 1.18 1.26 1.17 0.91 0.59 0.54 0.37 0.28 0.23 0.24 0.18 0.11 0.08 0.05 0.04 0.02 0.00 0.00 0.00 0.00 0.00
0.02 0.00 0.00 0.00 0.01 0.01 0.02 0.01 0.01 0.01 0.02 0.02 0.03 0.01 0.01 0.05 0.04 0.08 0.16 0.25 0.45 0.69 0.60 0.71 0.91 0.96 0.84 0.44 0.25 0.20 0.11 0.06 0.02 0.01 0.00 0.00 0.00 0.00 0.00 0.00 0.00 0.00 0.00
0.00 0.00 0.00 0.00 0.00 0.00 0.00 0.00 0.00 0.00 0.00 0.00 0.00 0.00 0.00 0.00 0.00 0.00 0.00 0.02 0.02 0.03 0.07 0.08 0.19 0.41 0.30 0.18 0.07 0.06 0.13 0.08 0.03 0.01 0.00 0.00 0.00 0.00 0.00 0.00 0.00 0.00 0.00
0.00 0.00 0.00 0.00 0.00 0.00 0.00 0.00 0.00 0.00 0.00 0.00 0.00 0.00 0.00 0.00 0.00 0.00 0.00 0.00 0.00 0.00 0.00 0.00 0.00 0.00 0.00 0.00 0.00 0.00 0.00 0.00 0.00 0.00 0.00 0.00 0.00 0.00 0.00 0.00 0.00 0.00 0.00
0.01 0.00 0.01 0.01 0.00 0.00 0.00 0.00 0.00 0.00 0.00 0.00 0.00 0.00 0.00 0.00 0.00 0.00 0.00 0.00 0.00 0.00 0.00 0.00 0.00 0.00 0.00 0.00 0.00 0.00 0.00 0.00 0.00 0.00 0.00 0.00 0.00 0.00 0.00 0.00 0.00 0.00 0.00
0.06 0.05 0.02 0.02 0.00 0.00 0.00 0.00 0.00 0.00 0.00 0.00 0.00 0.00 0.00 0.00 0.00 0.00 0.00 0.00 0.00 0.00 0.00 0.00 0.00 0.00 0.00 0.00 0.00 0.00 0.00 0.00 0.00 0.00 0.00 0.00 0.00 0.00 0.00 0.00 0.00 0.00 0.00
0.11 0.08 0.06 0.02 0.00 0.00 0.00 0.00 0.00 0.00 0.00 0.00 0.00 0.00 0.00 0.00 0.00 0.00 0.00 0.00 0.00 0.00 0.00 0.00 0.00 0.00 0.00 0.00 0.00 0.00 0.00 0.00 0.00 0.00 0.00 0.00 0.00 0.00 0.00 0.00 0.00 0.00 0.00
0.05 0.03 0.01 0.00 0.00 0.00 0.00 0.00 0.00 0.00 0.00 0.00 0.00 0.00 0.00 0.00 0.00 0.00 0.00 0.00 0.00 0.00 0.00 0.00 0.00 0.00 0.00 0.00 0.00 0.00 0.00 0.00 0.00 0.00 0.00 0.00 0.00 0.00 0.00 0.00 0.00 0.00 0.00